Location: Erskine
(52.3216°N, 112.8806°W)
Time: 10:19:20
(UTC+00:00)

NOAA 15 - Pass Details

Date: 15 December 2023
Orbit: 797 x 810 km, 98.6° (Epoch: 02 March)

Event Time Altitude Azimuth Distance (km) Brightness Sun altitude
Rises 01:42:31 0° 151° (SSE) 3,313 7.6 -20.6°
Reaches altitude 10° 01:44:52 10° 149° (SSE) 2,384 6.8 -21.0°
Maximum altitude 01:50:03 63° 69° (ENE) 902 4.5 -21.7°
Drops below altitude 10° 01:55:16 10° 350° (N) 2,392 7.1 -22.5°
Sets 01:57:37 0° 347° (NNW) 3,325 7.9 -22.9°
